AZERSPACE 2 (IS-38) (43632 NORAD) Tracking and Keplerian Element Data

This shows tracking and keplerian element data for the satellite.

Feedback or suggestion? Click here.




ElementValue
Catalog43632
NameAZERSPACE 2 (IS-38)
Epoch Orbit318
Epoch Day199.19771709
Epoch Year2019
RAAN58.6383
Inclination0.0159
Eccentricity0.0001715
Argument of Perigee60.6022
Mean Anonmoly292.7643
Mean Motion1.00273306
Decay Rate1.26E-06
L11 43632U 18074A 19199.19771709 .00000126 00000-0 00000+0 0 9996
L22 43632 0.0159 58.6383 0001715 60.6022 292.7643 1.00273306 3185

Live tracking and technical data element details for AZERSPACE 2 (IS-38) (NORAD 43632). AZERSPACE 2 (IS-38) can be tracked NOW for your location showing map with azimuth and elevation plus other details from your city location.

Track the satellite on the map from your city or location and see movement details for azimuth, elevation, latitude, longitude, range, height, and movement on the map or in text.







IsCatalogInMostPopularTable: catalog: 43632, numindb: 176
Update: records affected: 1



GetName: 43632 AZERSPACE 2 (IS-38)

Hit Count: updated at: Fri, 19 Jul 2019 23:36:10 GMT